Flag for Germany Weather past 2 weeks in Fürth, Bavaria, Germany

Now
46 °F

Clear.


Feels Like: 46 °F
Forecast: 48 / 74 °F
Wind: 1 mph from North

Location: Nuernberg


UV Index: 3 (Moderate)

Visibility: 10 mi


Pressure: 30.09 "Hg

Humidity: 87%

Dew point: 43 °F

Location of FürthLocation

Historic Weather in Fürth

°F

Fürth temperature yesterday

Maximum temperature yesterday: 72 °F (at 4:20 PM)
Minimum temperature yesterday: 37 °F (at 6:20 AM)
Average temperature yesterday: 56 °F

Past Weeks' High & Low Weather Summary

 TemperatureHumidityPressure
High72 °F (Apr 23, 4:20 PM)100% (Apr 16, 6:20 AM)30.36 "Hg (Apr 16, 6:20 AM)
Low27 °F (Apr 17, 6:20 AM)28% (Apr 17, 2:50 PM)29.62 "Hg (Apr 21, 11:20 AM)
Average49 °F69%30.01 "Hg
* Reported Apr 9 2:20 AM — Apr 24 2:50 AM, Fürth, Weather by CustomWeather, © 2014

Note: Actual official high and low records may vary slightly from our data, if they occured in-between our weather recording intervals... More about our weather records

Advertising

Historic Weather Conditions — Data for Previous 24 hours

 ConditionsComfort  
Time TempWeatherWind HumidityBarometerVisibility
2:50 AM
Apr 24
48 °FClear.1 mph87%30.09 "Hg10 mi
2:20 AM48 °FClear.1 mph87%30.09 "Hg10 mi
1:50 AM48 °FClear.1 mph87%30.09 "Hg10 mi
1:20 AM50 °FClear.1 mph76%30.09 "Hg10 mi
12:50 AM52 °FClear.2 mph77%30.09 "Hg10 mi
12:20 AM50 °FPassing clouds.3 mph82%30.09 "HgN/A
11:50 PM
Apr 23
52 °FPassing clouds.5 mph77%30.09 "HgN/A
11:20 PM54 °FClear.3 mph72%30.09 "Hg10 mi
10:50 PM54 °FClear.1 mph72%30.07 "Hg10 mi
10:20 PM57 °FClear.1 mph59%30.07 "Hg10 mi
9:50 PM55 °FClear.2 mph63%30.07 "Hg10 mi
9:20 PM61 °FClear.2 mph52%30.07 "Hg10 mi
8:50 PM63 °FSunny.2 mph49%30.07 "Hg10 mi
8:20 PM64 °FSunny.1 mph43%30.04 "Hg10 mi
7:50 PM66 °FSunny.2 mph40%30.04 "Hg10 mi
7:20 PM68 °FPassing clouds.5 mph35%30.04 "HgN/A
6:50 PM70 °FSunny.5 mph33%30.04 "Hg10 mi
6:20 PM70 °FPassing clouds.6 mph35%30.04 "HgN/A
5:50 PM70 °FPassing clouds.5 mph33%30.04 "HgN/A
5:20 PM70 °FSunny.3 mph33%30.04 "Hg10 mi
4:50 PM70 °FPassing clouds.5 mph35%30.04 "HgN/A
4:20 PM72 °FPassing clouds.5 mph29%30.07 "HgN/A
3:50 PM70 °FPassing clouds.6 mph33%30.07 "HgN/A
3:20 PM70 °FSunny.6 mph31%30.07 "Hg10 mi
2:50 PM68 °FPassing clouds.8 mph33%30.07 "HgN/A
2:20 PM70 °FSunny.5 mph33%30.07 "Hg10 mi
1:50 PM68 °FSunny.6 mph35%30.09 "Hg10 mi
1:20 PM68 °FPassing clouds.6 mph40%30.09 "HgN/A
12:50 PM68 °FPassing clouds.8 mph43%30.09 "HgN/A
12:20 PM66 °FScattered clouds.5 mph46%30.09 "HgN/A
11:50 AM64 °FScattered clouds.6 mph49%30.09 "HgN/A
11:20 AM64 °FScattered clouds.5 mph56%30.09 "HgN/A
10:50 AM63 °FScattered clouds.2 mph56%30.09 "HgN/A
10:20 AM59 °FSunny.3 mph63%30.12 "Hg10 mi
9:50 AM57 °FSunny.2 mph67%30.09 "Hg10 mi
9:20 AM54 °FSunny.2 mph77%30.09 "Hg10 mi
8:50 AM52 °FSunny.2 mph77%30.09 "Hg10 mi
8:20 AM48 °FSunny.2 mph87%30.09 "Hg10 mi
7:50 AM46 °FSunny.1 mph87%30.09 "Hg10 mi
7:20 AM43 °FSunny.1 mph87%30.09 "Hg10 mi
6:50 AM39 °FSleet. Fog.1 mph100%30.09 "HgN/A
6:20 AM37 °FFog.2 mph100%30.07 "HgN/A
5:50 AM41 °FSleet. Overcast.1 mph100%30.07 "HgN/A
5:20 AM39 °FFog.1 mph100%30.07 "HgN/A
4:50 AM39 °FFog.1 mph100%30.07 "HgN/A
4:20 AM41 °FClear.1 mph100%30.07 "Hg10 mi
Weather by CustomWeather, © 2014

See weather overview